DELTA 1 DEB, 10758

Orbit data source: Space-Track

DELTA 1 DEB, 10758 is space debris in SSO originally from a launch on Thu, 29 Jul 1976 UTC launched from the Air Force Western Test Range (AFWTR). Debris objects in space refer to the collection of defunct objects orbiting the Earth. Examples of debris include non-operational satellites, rocket bodies, and fragments generated from explosions, collisions, or faulty payload assembly.

Loading next visibility...
Identifier
10758, 1976-077BF
Orbit
SSO
Country
Flag of USUS
Related business
Manufacturer
Unknown
Mission
Spacecraft
Bus & Motor
Unknown
Mass
Unknown
Launch date (UTC)
1976-07-29 (50 years ago)
Launch vehicle
Unknown
Launch site
Air Force Western Test Range (AFWTR)
Object type
Payload
Rocket body
Debris
Shape & HBR
Unknown shape, 0.3 m
Radar Cross Section
Medium (>0.1 m² and <1 m²)

Expand to show TLE details & history
Last TLE update: 12 hours ago

TLE from 12 hours ago
0 DELTA 1 DEB
1 10758U 76077BF  26255.65098622  .00000015  00000-0  58882-3 0  9996
2 10758 102.4764 206.3856 0156501  39.1478 132.7703 12.12869993219675
Epoch: 2026-09-12T15:37Z
TLE epoch observation values (Epoch: 2026-09-12T15:37:25.209Z)
Latitude
6.55641°
Longitude
161.8239°
Altitude
1,711.726 km
Speed
6.983 km/s
True Right ascension
01h 51m 20s
True Declination
6° 31' 20"
Sunlit
Object was in full shadow at epoch
Visualization orbit readout
Latitude
Unknown
Longitude
Unknown
Altitude
Unknown
Speed
Unknown
Apparent Right ascension
Unknown
Apparent Declination
Unknown
Sunlit
N/A
Visualization observer readout
Local Sidereal Time
19:39:59
Azimuth
Unknown
Elevation
Unknown
Doppler factor
Unknown
Orbital elements
Apogee altitude
1,746.58 km
Perigee altitude
1,496.193 km
Semi-major axis
7,999.524 km
Eccentricity
0.01565
Inclination
102.4764°
RAAN
206.3856°
Arg. of periapsis
39.1478°
True anomaly
134.0694°
Mean anomaly
132.7703°
Eccentric anomaly
133.42158°
Mean motion
3.03352 °/min
Orbital period
118.67 mins
BSTAR
0.00058882
Loading maneuver chart data...
Computing Atmospheric mass density...
Loading historical data...
Loading historical data...
Loading historical data...
Loading historical data...
Loading historical data...
Loading historical data...
Loading historical data...

Documentation

Showing up to 5 results
|